Regional Weather Roundup
Issued by NWS Sioux Falls, SD

Home | Current Version | Previous Version | Text Only | Print | Product List | Glossary On
Versions: 1 2 3 4 5 6 7 8 9 10 11 12 13 14 15 16 17 18 19 20 21 22 23 24 25 26 27 28 29 30 31 32 33 34 35 36 37 38 39 40 41 42 43 44 45 46 47 48 49 50
000
ASUS43 KFSD 252210
RWRFSD

WEATHER ROUNDUP FOR SE SOUTH DAKOTA/SW MINNESOTA/NW IOWA
NATIONAL WEATHER SERVICE SIOUX FALLS SD
400 PM CST SUN JAN 25 2015

NOTE: "FAIR" INDICATES FEW OR NO CLOUDS BELOW 12,000 FEET WITH NO
SIGNIFICANT WEATHER AND OR OBSTRUCTIONS TO VISIBILITY.


SDZ038>040-050-052>070-252300-
SOUTHEAST SOUTH DAKOTA

CITY           SKY/WX    TMP DP  RH WIND       PRES   REMARKS
CHAMBERLAIN    CLOUDY    39  33  80 NW6       30.04R
HURON          CLOUDY    34  29  82 CALM      30.03S
MADISON        CLOUDY    32  32 100 NW8       30.02R WCI  25
MITCHELL       CLOUDY    36  31  82 NW6       30.05R
SIOUX FALLS    CLOUDY    34  30  85 NW9       30.03R WCI  27
WINNER         CLOUDY    43  30  60 W8        30.03S
YANKTON        PTSUNNY   37  30  75 NW5       30.06S
$$

MNZ071-072-080-081-089-090-097-098-252300-
SOUTHWEST MINNESOTA

CITY           SKY/WX    TMP DP  RH WIND       PRES   REMARKS
FAIRMONT       CLOUDY    28  21  74 N8        30.03R WCI  20
JACKSON        CLOUDY    30  27  86 N3        30.03R
LUVERNE        CLOUDY    34  32  93 N3        30.03S
MARSHALL       CLOUDY    28  25  86 NW8       30.05S WCI  20
MONTEVIDEO     PTSUNNY   34  32  93 NW7       30.05R WCI  28
PIPESTONE      CLOUDY    32  28  86 N3        30.00S
REDWOOD FALLS  CLOUDY    30  23  75 CALM      30.03S
TRACY          CLOUDY    29  28  96 NW6       30.03S FOG     WCI  23
WINDOM         CLOUDY    28  27  93 CALM      30.03R
WORTHINGTON    CLOUDY    30  27  86 N5        30.02S WCI  25
$$

IAZ001>003-012>014-020>022-031-032-NEZ013-014-SDZ071-252300-
NORTHWEST IOWA

CITY           SKY/WX    TMP DP  RH WIND       PRES   REMARKS
CHEROKEE       CLOUDY    33  30  90 N6        30.05R WCI  27
DENISON        CLOUDY    36  30  80 N10G16    30.02R
ESTHERVILLE    CLOUDY    28  24  85 N10       30.03R WCI  19
LE MARS        CLOUDY    36  32  87 N7        30.05S
ORANGE CITY    CLOUDY    36  30  80 N7        30.04R
SHELDON        CLOUDY    32  32 100 N7        30.02S WCI  26
SIOUX CITY     CLOUDY    37  33  85 NW9       30.05R
SPENCER        CLOUDY    32  26  78 N10       30.03R WCI  24
STORM LAKE     CLOUDY    32  28  86 N12       30.03R WCI  23
$$

ABBREVIATIONS USED IN REMARKS
   TC - TEMPERATURE IN CELSIUS
  WCI - WIND CHILL INDEX
   HX - HEAT INDEX
  VSB - VISIBILITY



USA.gov is the U.S. government's official web portal to all federal, state and local government web resources and services.